Location: Hall+in+Tirol
(47.2830°N, 11.5170°E)
Time: 21:13:11
(UTC+02:00)

Daily predictions for brighter satellites

Satellite Brightness Start Highest point End
(mag) Time Altitude Azimuth Time Altitude Azimuth Time Altitude Azimuth
Cosmos 1455 Rocket 3.2 21:23:44 10° NNW 21:28:08 79° W 21:32:29 10° S
RESURS DK-1 2.3 21:26:39 10° SSW 21:30:45 83° ESE 21:34:56 10° NNE
NOSS 2-2 (D) 4.2 21:27:15 10° S 21:30:50 31° ESE 21:34:51 10° NE
Cosmos 1943 Rocket 2.9 21:26:07 10° NW 21:31:33 52° WSW 21:36:55 10° S
TELKOM 3 4.1 21:30:47 10° WNW 21:32:53 41° N 21:35:28 10° ENE
Cosmos 1975 3.5 21:31:58 10° NNW 21:35:58 58° W 21:39:58 10° S
Okean 1 3.8 21:33:36 10° SSW 21:37:32 65° W 21:41:30 10° N
CENTAUR R/B 3.2 21:30:20 10° NW 21:38:09 87° SW 21:46:35 10° SE
Helios 1B rocket 2.7 21:34:04 10° N 21:38:13 77° WNW 21:42:20 10° SSW
Cosmos 1818 3.6 21:35:08 10° SSW 21:40:26 58° ESE 21:45:48 10° NE
COSMOS 2406 3.7 21:35:15 10° S 21:40:33 40° ESE 21:45:51 10° NE
NOSS 3-4 (A) 4.1 21:35:07 10° SW 21:41:24 66° NW 21:48:00 10° NE
NOSS 3-4 (C) 4.1 21:35:13 10° SW 21:41:31 67° NW 21:48:07 10° NE
NOAA 11 4.4 21:36:11 10° SSE 21:41:32 61° ENE 21:46:54 10° N
DNEPR-1 R/B 3.7 21:37:57 10° NNW 21:42:09 63° NE 21:46:30 10° SE
H-2A R/B 4.2 21:40:38 10° E 21:43:21 16° ENE 21:46:05 10° NNE
Cosmos 405 Rocket 2.8 21:40:52 10° S 21:44:30 53° E 21:48:14 10° NNE
H-2A R/B 3.0 21:41:46 10° SE 21:46:04 31° ENE 21:50:28 10° N
ERS-1 Rocket 3.0 21:42:34 10° SSE 21:47:36 85° ENE 21:52:39 10° NNW
NOSS 2-2 (C) 3.8 21:45:34 10° SSW 21:49:27 46° ESE 21:53:55 10° NE
Cosmos 2184 Rocket 4.1 21:43:20 10° N 21:49:46 80° E 21:56:05 10° SSE
Cosmos 2074 Rocket 4.0 21:45:08 10° N 21:51:25 85° E 21:57:41 10° S
ARGOS 3.4 21:46:33 10° SE 21:51:48 56° ENE 21:57:07 10° N
Cosmos 1939 Rocket 4.1 21:48:12 10° SSW 21:51:51 39° W 21:55:31 10° NNW
YAOGAN 6 3.0 21:48:50 10° S 21:52:16 59° W 21:55:46 10° NNW
USA 81 4.2 21:48:00 10° S 21:53:17 78° W 21:58:37 10° N
Cosmos 2112 Rocket 4.4 21:50:44 10° S 21:55:36 42° ESE 22:00:30 10° NE
Meteor 2-13 Rocket 4.5 21:49:32 10° N 21:55:38 87° E 22:01:42 10° S
Meteor 1-29 3.9 21:53:00 10° N 21:56:19 50° WNW 21:59:35 10° SSW
Cosmos 1441 Rocket 3.6 21:55:23 10° SSE 21:58:55 40° E 22:02:27 10° NNE
Okean 1-7 Rocket 4.0 21:56:08 10° SSE 22:00:20 43° E 22:04:36 10° NNE
Cosmos 773 Rocket 4.1 21:55:16 10° SSW 22:00:25 79° WNW 22:05:36 10° NNE
Cosmos 1346 2.7 21:58:51 10° S 22:01:37 70° E 22:04:23 10° NNE
Aureole 1 Rocket 2.7 22:03:37 10° S 22:06:46 38° ESE 22:09:37 10° NE
Cosmos 1437 4.0 22:08:42 10° SSW 22:11:47 42° WNW 22:14:53 10° N
OE (NEXTSAT) 4.3 22:08:44 10° W 22:12:18 72° S 22:15:27 13° E
Cosmos 2056 Rocket 3.9 22:14:04 10° NNW 22:19:10 51° ENE 22:22:54 17° SE
Cosmos 1680 Rocket 3.4 22:14:21 10° SSW 22:19:33 77° ESE 22:24:48 10° NNE
Cosmos 1743 4.2 22:16:23 10° NNW 22:19:57 36° W 22:23:32 10° SSW
Meteor 2-9 Rocket 4.2 22:15:06 10° NNW 22:20:33 81° W 22:25:50 11° S
Cosmos 1697 Rocket 4.3 22:16:02 10° N 22:20:35 24° NE 22:25:07 10° E
Cosmos 192 4.4 22:16:10 10° S 22:20:56 55° ESE 22:25:45 10° NNE
MetOp-B 4.4 22:15:42 10° S 22:21:02 71° WSW 22:26:25 10° NNW
MOS 1-B Rocket 4.2 22:17:54 10° S 22:23:36 72° WSW 22:29:58 10° NNW
Cosmos 2228 4.1 22:20:02 10° N 22:23:54 30° ENE 22:26:17 18° ESE
Meteor 2-4 Rocket 3.8 22:21:11 10° S 22:26:48 87° W 22:32:39 10° N
USA 245 2.5 22:25:08 20° S 22:26:54 68° WSW 22:29:20 10° NNW
Okean 2 3.5 22:24:14 16° SSE 22:27:19 54° E 22:31:20 10° NNE
YAOGAN 11 4.4 22:24:30 13° S 22:28:19 63° WSW 22:32:37 10° NNW
Cosmos 1606 Rocket 3.6 22:25:57 10° N 22:30:17 66° E 22:33:07 20° SSE
Cosmos 921 Rocket 3.8 22:26:34 10° N 22:30:53 42° ENE 22:33:33 20° SE
Nadezhda 1 Rocket 4.1 22:24:46 10° S 22:31:07 82° W 22:37:35 10° N
Cosmos 2154 Rocket 4.1 22:26:47 10° N 22:33:11 89° WSW 22:38:41 14° S
Cosmos 1437 Rocket 2.6 22:29:31 10° N 22:33:20 75° ENE 22:35:40 22° SSE
SPOT 1/Viking Rocket 3.5 22:32:49 17° SSE 22:36:53 87° WSW 22:42:06 10° NNW
Aureole 3 Rocket 4.4 22:31:01 10° SSW 22:37:28 54° W 22:42:07 10° N
NOSS 2-2 (E) 4.1 22:34:14 10° SW 22:38:21 64° NW 22:43:22 10° NE
SL-8 Rocket 4.4 22:33:49 10° N 22:39:53 50° ENE 22:44:00 21° SE
SL-27 R/B 2.5 22:36:41 10° SSW 22:40:20 90° WNW 22:44:01 10° NNE
SPOT 5 3.1 22:36:49 14° S 22:40:21 55° W 22:44:39 10° NNW
Cosmos 1726 Rocket 3.5 22:37:25 10° N 22:41:46 73° E 22:44:19 24° SSE
Cosmos 1833 Rocket 4.0 22:41:56 18° ESE 22:43:20 20° E 22:47:17 10° NE
Landsat 7 3.8 22:41:49 22° SSE 22:44:55 77° ENE 22:49:42 10° N
Cosmos 2058 Rocket 3.2 22:40:34 10° N 22:44:55 58° ENE 22:47:18 25° SSE
Cosmos 405 4.0 22:42:27 10° NNW 22:45:51 41° W 22:48:22 16° SSW
Cosmos 1656 4.3 22:41:48 10° NNW 22:47:00 44° NE 22:50:30 20° ESE
Nimbus 7 Rocket 4.4 22:42:11 10° NNE 22:48:17 85° ESE 22:54:22 10° SSW
Cosmos 1452 Rocket 4.2 22:46:28 10° N 22:51:31 43° ENE 22:54:34 22° ESE
SL-08 RB Rocket 4.3 22:48:23 16° S 22:51:45 52° W 22:56:09 10° NNW
Meteor 1-23 Rocket 4.5 22:47:15 10° SSW 22:52:48 70° WNW 22:58:25 10° N
CARTOSAT-1 3.6 22:51:14 27° SSE 22:53:29 65° ENE 22:57:47 10° N
Cosmos 1371 Rocket 4.4 22:52:59 10° NNW 22:58:16 61° WSW 23:01:39 22° S
Lacrosse 5 rocket 3.9 22:54:33 10° NW 22:58:20 24° N 23:02:09 10° NE
Cosmos 2341 Rocket 4.1 22:52:58 10° N 22:59:18 79° W 23:04:01 19° S
Cosmos 1025 Rocket 3.7 22:55:30 10° SSW 22:59:40 52° WNW 23:03:51 10° N
Terra 1.8 22:57:21 27° SSE 22:59:58 76° ENE 23:04:45 10° N
PSLV R/B 3.3 23:02:23 45° E 23:02:43 48° ENE 23:05:27 10° N
Spot 4 4.4 23:01:01 26° SE 23:03:23 46° ENE 23:07:58 10° N
COSMOS 2487 3.3 23:04:11 31° ESE 23:04:21 32° ESE 23:07:34 10° NE
USA 267 3.8 23:00:38 10° ENE 23:06:32 35° SE 23:10:32 19° S
Cosmos 1980 Rocket 3.5 23:01:58 10° NNW 23:07:02 31° NE 23:10:49 16° ESE
Cosmos 1766 4.4 23:07:26 10° N 23:10:59 31° ENE 23:12:02 27° ESE
Meteor 1-22 Rocket 4.4 23:08:37 10° N 23:13:49 53° ENE 23:16:18 29° SE
Cosmos 2322 Rocket 4.4 23:10:17 10° N 23:14:01 17° NE 23:17:46 10° E
Cosmos 1812 Rocket 4.4 23:11:32 10° N 23:15:46 39° ENE 23:17:18 29° ESE
Cosmos 2218 Rocket 3.9 23:11:32 10° N 23:17:42 78° E 23:21:08 28° SSE
H-2A R/B 2.3 23:16:40 31° S 23:18:48 72° WSW 23:23:22 10° NNW
H-2A R/B 3.1 23:22:12 17° SSW 23:25:25 37° W 23:30:03 10° NNW
Cosmos 1515 4.4 23:23:45 22° SW 23:25:56 49° WNW 23:29:40 10° N
DMSP B5D2-2 4.3 23:22:03 10° N 23:27:21 73° WNW 23:31:14 19° SSW
TELKOM 3 3.6 23:26:42 10° WNW 23:29:20 66° SSW 23:29:22 66° SSW
USA 229 DEB 4.3 23:23:42 10° NW 23:30:39 54° NE 23:36:09 17° ESE
USA 229 4.4 23:23:48 10° NW 23:30:45 53° NE 23:36:16 17° ESE
Cosmos 1626 Rocket 3.6 23:29:37 42° SSE 23:30:48 59° E 23:35:04 10° NNE
ALOS 2 4.4 23:30:49 17° E 23:32:33 22° ENE 23:35:54 10° NNE
Cosmos 2278 3.9 23:27:55 10° NNW 23:33:35 64° WSW 23:36:13 32° S
Cosmos 2181 Rocket 4.4 23:31:37 15° SSW 23:36:57 61° WNW 23:43:13 10° N
Meteor 1-4 Rocket 2.5 23:34:06 10° NNW 23:37:45 74° W 23:38:25 55° SSW
CZ-4 R/B 3.9 23:33:26 10° NNE 23:38:28 85° ESE 23:40:51 32° SSW
Cosmos 2082 Rocket 2.3 23:37:42 33° S 23:40:06 58° ESE 23:45:40 10° NE
ISS -1.7 23:42:40 17° ENE 23:42:40 17° ENE 23:43:35 10° ENE
CZ-2C R/B 4.3 23:38:34 22° ESE 23:41:11 33° ENE 23:46:08 10° N
CZ-4C R/B 2.9 23:42:05 65° SSE 23:42:32 85° ENE 23:46:07 10° NNW
USA 234 3.8 23:36:49 10° ESE 23:43:12 58° NNE 23:49:36 10° NW
DELTA 2 DEB (DPAF) 4.1 23:42:14 43° S 23:43:41 85° WSW 23:48:13 10° NNW
Cosmos 1805 3.8 23:45:45 10° N 23:49:32 44° ENE 23:50:05 41° ESE
Cosmos 2369 4.3 23:46:09 10° NW 23:51:37 47° WSW 23:53:58 30° SSW
Nadezhda 3 Rocket 4.3 23:49:10 33° SSE 23:51:45 52° E 23:57:54 10° NNE
SeaSat 1 2.7 23:50:36 33° ESE 23:52:39 60° ENE 23:57:32 10° NNW
